This demonstration page uses our WeatherBlox Daily Observations layout. Learn more.

Left ArrowRight Arrow

Hourly Observations for September 7, 2015

Temp ( °F °C ) Dew Point ( °F °C ) Humidity (%) Winds ( mph kmh ) Pressure ( in mb ) Visibility ( mi km ) Precip ( " mm )
12:52 am 00:52 Cloudy with Thunderstorms 76 24.4 69 20.6 79 79 SSE 9 15 29.92 1013 10 16 0.00 0.00
1:49 am 01:49 Cloudy with Thunderstorms 73 23 70 21 89 89 E 3 6 29.91 1013 10 16 0.00 0.03
1:52 am 01:52 Cloudy with Thunderstorms 75 23.9 70 21.1 84 84 Calm 29.91 1013 10 16 0.00 0.03
2:29 am 02:29 Cloudy with Thunderstorms 75 23.9 70 21.1 84 84 Calm 29.91 1013 10 16 0.00 0.00
2:52 am 02:52 Cloudy with Thunderstorms 74 23.3 71 21.7 91 91 NNW 6 9 29.91 1013 10 16 0.00 0.00
3:12 am 03:12 Mostly Cloudy with Thunderstorms 73 23 72 22 94 94 N 6 9 29.91 1013 10 16 0.00 0.00
3:43 am 03:43 Mostly Cloudy 73 22.8 71 21.7 94 94 N 5 7 29.91 1013 10 16 0.00 0.00
3:52 am 03:52 Cloudy 73 22.8 71 21.7 94 94 N 5 7 29.91 1013 10 16 0.00 0.00
4:16 am 04:16 Cloudy 73 23 72 22 94 94 N 5 7 29.94 1014 10 16 0.00 0.00
4:52 am 04:52 Cloudy 73 22.8 71 21.7 94 94 N 5 7 29.92 1013 10 16 0.00 0.00
5:52 am 05:52 Cloudy 73 22.8 71 21.7 94 94 NNW 5 7 29.94 1014 10 16 0.00 0.00
6:01 am 06:01 Cloudy 73 22.8 71 21.7 94 94 NNW 5 7 29.94 1014 10 16 0.00 0.00
6:52 am 06:52 Cloudy 74 23.3 72 22.2 94 94 NNE 3 6 29.94 1014 7 11 0.00 0.00
7:49 am 07:49 Cloudy 75 24 72 22 89 89 ENE 6 9 29.94 1014 7 11 0.00 0.00
7:52 am 07:52 Cloudy 76 24.4 72 22.2 88 88 ENE 6 9 29.94 1014 7 11 0.00 0.00
8:37 am 08:37 Cloudy 76 24.4 73 22.8 91 91 E 6 9 29.94 1014 7 11 0.00 0.00
8:52 am 08:52 Cloudy 76 24.4 72 22.2 88 88 ESE 8 13 29.95 1014 7 11 0.00 0.00
9:52 am 09:52 Cloudy 75 23.9 72 22.2 90 90 ESE 10 17 29.95 1014 10 16 0.00 0.00
10:52 am 10:52 Cloudy 76 24.4 71 21.7 85 85 ESE 5 7 29.96 1015 10 16 0.00 0.00
11:43 am 11:43 Cloudy 77 25 72 22.2 85 85 NE 3 6 29.97 1015 10 16 0.00 0.00
11:52 am 11:52 Cloudy 76 24.4 71 21.7 85 85 SE 3 6 29.96 1015 10 16 0.00 0.00
12:52 pm 12:52 Cloudy 79 26.1 72 22.2 79 79 E 5 7 29.94 1014 10 16 0.00 0.00
1:52 pm 13:52 Mostly Cloudy 82 27.8 72 22.2 72 72 ESE 7 11 29.90 1013 10 16 0.00 0.00
2:12 pm 14:12 Mostly Cloudy 82 28 72 22 70 70 ESE 6 9 29.88 1012 10 16 0.00 0.00
2:52 pm 14:52 Mostly Cloudy 82 27.8 71 21.7 69 69 VRB 3 6 29.91 1013 10 16 0.00 0.00
3:52 pm 15:52 Cloudy 79 26.1 74 23.3 85 85 N 9 15 29.90 1013 10 16 0.00 0.00
4:52 pm 16:52 Mostly Cloudy 82 27.8 73 22.8 74 74 ENE 5 7 29.85 1011 10 16 0.00 0.00
5:52 pm 17:52 Mostly Cloudy with Light Rain 80 26.7 74 23.3 82 82 E 6 9 29.86 1011 10 16 0.00 0.03
6:52 pm 18:52 Mostly Cloudy 77 25 75 23.9 94 94 NW 8 13 29.87 1012 10 16 0.02 0.51
7:52 pm 19:52 Mostly Cloudy 77 25 75 23.9 94 94 ESE 5 7 29.83 1010 10 16 0.01 0.25
8:52 pm 20:52 Mostly Cloudy 77 25 74 23.3 90 90 WNW 7 11 29.84 1011 10 16 0.00 0.00
9:52 pm 21:52 Mostly Cloudy 76 24.4 74 23.3 94 94 ESE 5 7 29.84 1011 10 16 0.00 0.00
10:52 pm 22:52 Cloudy 75 23.9 73 22.8 94 94 Calm 29.86 1011 10 16 0.00 0.00
11:47 pm 23:47 Cloudy 77 25 73 23 89 89 SE 8 13 29.83 1010 10 16 0.00 0.00
11:52 pm 23:52 Mostly Cloudy 77 25 74 23.3 90 90 SE 8 13 29.86 1011 10 16 0.00 0.00

Powered by AerisWeather